This is the latest recevied weather packets stored in our database for station/object F4FSZ-11. If no packets are shown the sender has not sent any weather packets the latest 10 day(s).
| Time | Temp. | Humidity | Pressure | Rain* | Wind** | Luminosity | Snow |
|---|---|---|---|---|---|---|---|
| 1777962833 | 13.89° C | 100% | 1003.8 hPa | - | - | - | - |
| 1777961933 | 14.44° C | 100% | 1004 hPa | - | - | - | - |
| 1777961033 | 13.33° C | 100% | 1004 hPa | - | - | - | - |
| 1777960133 | 12.78° C | 100% | 1004.2 hPa | - | - | - | - |
| 1777959233 | 12.22° C | 100% | 1004.2 hPa | - | - | - | - |
| 1777958333 | 11.67° C | 100% | 1004.3 hPa | - | - | - | - |
| 1777957433 | 11.67° C | 100% | 1004.3 hPa | - | - | - | - |
| 1777956532 | 11.67° C | 100% | 1004.2 hPa | - | - | - | - |
| 1777955632 | 11.67° C | 100% | 1004.2 hPa | - | - | - | - |
| 1777954732 | 11.67° C | 100% | 1004.2 hPa | - | - | - | - |
| 1777953832 | 12.22° C | 100% | 1004.3 hPa | - | - | - | - |
| 1777952932 | 11.67° C | 100% | 1004.3 hPa | - | - | - | - |
| 1777952032 | 11.67° C | 100% | 1004.2 hPa | - | - | - | - |
| 1777951132 | 11.67° C | 100% | 1004.2 hPa | - | - | - | - |
| 1777950232 | 11.67° C | 100% | 1004.1 hPa | - | - | - | - |
| 1777949332 | 11.67° C | 100% | 1004.3 hPa | - | - | - | - |
| 1777948432 | 11.67° C | 100% | 1004.4 hPa | - | - | - | - |
| 1777947532 | 12.22° C | 100% | 1004.5 hPa | - | - | - | - |
| 1777946632 | 12.22° C | 100% | 1004.5 hPa | - | - | - | - |
| 1777945732 | 12.22° C | 100% | 1004.5 hPa | - | - | - | - |
| 1777944832 | 12.22° C | 100% | 1004.7 hPa | - | - | - | - |
| 1777943932 | 11.67° C | 100% | 1004.8 hPa | - | - | - | - |
| 1777943032 | 11.67° C | 100% | 1004.9 hPa | - | - | - | - |
| 1777942131 | 11.11° C | 100% | 1005.2 hPa | - | - | - | - |
| 1777941231 | 11.11° C | 100% | 1005.2 hPa | - | - | - | - |
* Rain since midnight (hover to see other rain measurements)
** Current wind speed in m/s (hover to see current wind gust speed)